Location: Unspecified
(0.0000°N, 0.0000°E)
Time: 08:08:20
(UTC+00:00)

FAST 1 (USA 222) - Pass Details

Date: 02 June 2024
Orbit: 613 x 632 km, 72.0° (Epoch: 13 June)

Event Time Altitude Azimuth Distance (km) Brightness Sun altitude
Rises 19:09:34 0° 337° (NNW) 2,882 ? -16.5°
Reaches altitude 10° 19:11:51 10° 332° (NNW) 1,982 ? -17.0°
Maximum altitude 19:16:11 53° 256° (WSW) 768 ? -18.0°
Enters shadow 19:20:17 12° 180° (S) 1,894 ? -18.9°
